Location: Aldenham
(51.6667°N, 0.3500°W)
Time: 07:49:45
(UTC+00:00)

USA 281 - Pass Details

Date: 18 November 2025
Orbit: 1079 x 1080 km, 106.0° (Epoch: 11 December)

Event Time Altitude Azimuth Distance (km) Brightness Sun altitude
Exits shadow 19:58:24 60° 256° (WSW) 1,229 3.6 -35.4°
Drops below altitude 10° 20:04:42 10° 328° (NNW) 2,931 6.0 -36.3°
Sets 20:07:16 0° 332° (NNW) 3,890 6.7 -36.7°
